Location: Newark
(40.3500°N, 15.2333°E)
Time: 01:16:12
(UTC+00:00)

NOAA 15 - Pass Details

Date: 21 February 2020
Orbit: 797 x 813 km, 98.7° (Epoch: 28 March)

Event Time Altitude Azimuth Distance (km) Brightness Sun altitude
Rises 04:58:01 0° 36° (NE) 3,335 8.3 -9.7°
Reaches altitude 10° 05:02:04 10° 67° (ENE) 2,393 8.1 -9.0°
Maximum altitude 05:04:03 12° 89° (E) 2,246 8.5 -8.6°
Drops below altitude 10° 05:06:01 10° 112° (ESE) 2,383 8.6 -8.2°
Sets 05:10:00 0° 142° (SE) 3,302 8.6 -7.5°
